WX1N Weather Reports


time (UTC)temp
C
wind
direction
speed
KPH
gust
KPH
rain 1hr
cm
rain 24hr
cm
rain mn
cm
humidity
%
barometer
mb
20260507001002 12 0 0.0 0.0 0.00 0.00 0.00 83 1004.9
20260507000503 12 0 0.0 0.0 0.00 0.00 0.00 84 1004.7
20260507000002 12 0 0.0 0.0 0.00 0.00 0.00 84 1004.6
20260506235502 12 0 0.0 0.0 0.00 0.00 0.00 83 1004.4
20260506235003 12 0 0.0 0.0 0.00 0.00 0.00 83 1004.4
20260506234502 12 0 0.0 0.0 0.00 0.00 0.00 82 1004.3
20260506234003 12 0 0.0 0.0 0.00 0.00 0.00 82 1004.2
20260506233502 12 0 0.0 0.0 0.00 0.00 0.00 83 1004.0
20260506233003 12 0 0.0 0.0 0.00 0.00 0.00 84 1003.8
20260506232503 12 0 0.0 0.0 0.00 0.00 0.00 86 1003.7
20260506232002 13 0 0.0 0.0 0.00 0.00 0.00 86 1003.8
20260506231502 13 0 0.0 0.0 0.00 0.00 0.00 86 1003.6
20260506231003 14 0 0.0 0.0 0.00 0.00 0.00 84 1003.4
20260506230502 15 0 0.0 0.0 0.00 0.00 0.00 81 1003.3
20260506230003 15 0 0.0 0.0 0.00 0.00 0.00 79 1003.1
20260506225502 15 0 0.0 0.0 0.00 0.00 0.00 79 1003.0
20260506225003 15 0 0.0 0.0 0.00 0.00 0.00 80 1002.8
20260506224502 15 0 0.0 0.0 0.00 0.00 0.00 81 1002.9
20260506224003 15 0 0.0 0.0 0.00 0.00 0.00 81 1002.8
20260506223503 15 0 0.0 0.0 0.00 0.00 0.00 81 1002.8
20260506223002 15 0 0.0 0.0 0.00 0.00 0.00 81 1002.8
20260506222503 15 0 0.0 0.0 0.00 0.00 0.00 81 1002.9
20260506222002 15 0 0.0 0.0 0.00 0.00 0.00 81 1002.9
20260506221503 15 0 0.0 0.0 0.00 0.00 0.00 81 1002.9
20260506221003 15 0 0.0 0.0 0.00 0.00 0.00 80 1003.0
20260506220503 15 0 0.0 0.0 0.00 0.00 0.00 81 1003.0
20260506220003 15 0 0.0 0.0 0.00 0.00 0.00 81 1003.0
20260506215502 15 0 0.0 0.0 0.00 0.00 0.00 82 1003.0
20260506215003 15 0 0.0 0.0 0.00 0.00 0.00 83 1002.7
20260506214502 15 0 0.0 0.0 0.00 0.00 0.00 84 1002.6
20260506214003 15 0 0.0 0.0 0.00 0.00 0.00 83 1002.5
20260506213503 15 0 0.0 0.0 0.00 0.00 0.00 83 1002.5
20260506213002 16 0 0.0 0.0 0.00 0.00 0.00 83 1002.5
20260506212503 16 0 0.0 0.0 0.00 0.00 0.00 83 1002.6
20260506212002 16 0 0.0 0.0 0.00 0.00 0.00 84 1002.5
20260506211503 16 0 0.0 0.0 0.00 0.00 0.00 83 1002.6
20260506211002 16 0 0.0 0.0 0.00 0.00 0.00 83 1002.5
20260506210503 16 0 0.0 0.0 0.00 0.00 0.00 83 1002.6
20260506210003 16 0 0.0 0.0 0.00 0.00 0.00 82 1002.6
20260506205502 16 0 0.0 0.0 0.00 0.00 0.00 81 1002.7
20260506205003 16 0 0.0 0.0 0.00 0.00 0.00 80 1002.7
20260506204502 16 0 0.0 0.0 0.00 0.00 0.00 80 1002.7
20260506204003 16 0 0.0 0.0 0.00 0.00 0.00 80 1002.7
20260506203503 16 0 0.0 0.0 0.00 0.00 0.00 79 1002.7
20260506203002 16 0 0.0 0.0 0.00 0.00 0.00 77 1002.8
20260506202503 16 0 0.0 0.0 0.00 0.00 0.00 75 1002.7
20260506202003 16 0 0.0 0.0 0.00 0.00 0.00 75 1002.8
20260506201503 16 0 0.0 0.0 0.00 0.00 0.00 75 1002.8
20260506201003 16 0 0.0 0.0 0.00 0.00 0.00 75 1002.9
20260506200502 16 0 0.0 0.0 0.00 0.00 0.00 76 1003.0
20260506200003 16 0 0.0 0.0 0.00 0.00 0.00 76 1003.0
20260506195503 16 0 0.0 0.0 0.00 0.00 0.00 76 1003.2
20260506195002 16 0 0.0 0.0 0.00 0.00 0.00 77 1003.1
20260506194503 16 0 0.0 0.0 0.00 0.00 0.00 78 1003.1
20260506194002 16 0 0.0 0.0 0.00 0.00 0.00 78 1003.2
20260506193503 16 0 0.0 0.0 0.00 0.00 0.00 79 1003.2
20260506193002 16 0 0.0 0.0 0.00 0.00 0.00 79 1003.2
20260506192503 16 0 0.0 0.0 0.00 0.00 0.00 80 1003.2
20260506192003 16 0 0.0 0.0 0.00 0.00 0.00 80 1003.2
20260506191502 16 0 0.0 0.0 0.00 0.00 0.00 81 1003.3
20260506191003 16 0 0.0 0.0 0.00 0.00 0.00 81 1003.3
20260506190502 16 0 0.0 0.0 0.00 0.00 0.00 81 1003.3
20260506190003 16 0 0.0 0.0 0.00 0.00 0.00 81 1003.4
20260506185503 16 0 0.0 0.0 0.00 0.00 0.00 80 1003.6
20260506185003 16 0 0.0 0.0 0.00 0.00 0.00 80 1003.6
20260506184503 16 0 0.0 0.0 0.00 0.00 0.00 81 1003.7
20260506184002 16 0 0.0 0.0 0.00 0.00 0.00 82 1003.8
20260506183503 16 0 0.0 0.0 0.00 0.00 0.00 82 1003.7
20260506183002 16 0 0.0 0.0 0.00 0.00 0.00 82 1003.8
20260506182503 16 0 0.0 0.0 0.00 0.00 0.00 83 1003.9
20260506182002 16 0 0.0 0.0 0.00 0.00 0.00 83 1003.9
20260506181503 16 0 0.0 0.0 0.00 0.00 0.00 83 1004.0
20260506181003 16 0 0.0 0.0 0.00 0.00 0.00 83 1004.0
20260506180503 16 0 0.0 0.0 0.00 0.00 0.00 83 1004.1
20260506180004 16 0 0.0 0.0 0.00 0.00 0.00 82 1004.3
20260506175502 16 0 0.0 0.0 0.00 0.00 0.00 82 1004.4
20260506175003 16 0 0.0 0.0 0.00 0.00 0.00 83 1004.5
20260506174502 16 0 0.0 0.0 0.00 0.00 0.00 83 1004.5
20260506174003 16 0 0.0 0.0 0.00 0.00 0.00 82 1004.8
20260506173502 16 0 0.0 0.0 0.00 0.00 0.00 82 1005.0
20260506173003 16 0 0.0 0.0 0.00 0.00 0.00 82 1005.1
20260506172502 16 0 0.0 0.0 0.00 0.00 0.00 82 1005.1
20260506172003 16 0 0.0 0.0 0.00 0.00 0.00 82 1005.0
20260506171503 16 0 0.0 0.0 0.00 0.00 0.00 81 1005.0
20260506171002 16 0 0.0 0.0 0.00 0.00 0.00 82 1005.1
20260506170503 16 0 0.0 0.0 0.00 0.00 0.00 82 1005.1
20260506170002 16 0 0.0 0.0 0.00 0.00 0.00 83 1004.9
20260506165503 16 0 0.0 0.0 0.00 0.00 0.00 84 1004.9
20260506165003 16 0 0.0 0.0 0.00 0.00 0.00 85 1005.0
20260506164503 16 0 0.0 0.0 0.00 0.00 0.00 86 1005.0
20260506164003 16 0 0.0 0.0 0.00 0.00 0.00 86 1005.0
20260506163502 16 0 0.0 0.0 0.00 0.00 0.00 87 1005.3
20260506163003 16 0 0.0 0.0 0.00 0.00 0.00 87 1005.2
20260506162503 16 0 0.0 0.0 0.00 0.00 0.00 87 1005.4
20260506162003 16 0 0.0 0.0 0.00 0.00 0.00 87 1005.3
20260506161503 16 0 0.0 0.0 0.00 0.00 0.00 87 1005.4
20260506161002 16 0 0.0 0.0 0.00 0.00 0.00 86 1005.4
20260506160503 16 0 0.0 0.0 0.00 0.00 0.00 86 1005.5
20260506160002 16 0 0.0 0.0 0.00 0.00 0.00 85 1005.4
20260506155503 16 0 0.0 0.0 0.00 0.00 0.00 85 1005.5
20260506155003 16 0 0.0 0.0 0.00 0.00 0.00 86 1005.7
20260506154503 16 0 0.0 0.0 0.00 0.00 0.00 86 1005.8
20260506154003 16 0 0.0 0.0 0.00 0.00 0.00 86 1005.9
20260506153502 16 0 0.0 0.0 0.00 0.00 0.00 86 1006.0
20260506153003 16 0 0.0 0.0 0.00 0.00 0.00 86 1006.1
20260506152502 16 0 0.0 0.0 0.00 0.00 0.00 86 1006.1
20260506152003 16 0 0.0 0.0 0.00 0.00 0.00 85 1006.4
20260506151502 16 0 0.0 0.0 0.00 0.00 0.00 84 1006.4
20260506151003 16 0 0.0 0.0 0.00 0.00 0.00 83 1006.6
20260506150503 16 0 0.0 0.0 0.00 0.00 0.00 83 1006.6
20260506150003 16 0 0.0 0.0 0.00 0.00 0.00 82 1006.7
20260506145503 16 0 0.0 0.0 0.00 0.00 0.00 82 1006.8
20260506145003 16 0 0.0 0.0 0.00 0.00 0.00 82 1006.7
20260506144503 16 0 0.0 0.0 0.00 0.00 0.00 82 1006.5
20260506144002 16 0 0.0 0.0 0.00 0.00 0.00 81 1006.5
20260506143503 16 0 0.0 0.0 0.00 0.00 0.00 82 1006.3
20260506143003 16 0 0.0 0.0 0.00 0.00 0.00 81 1006.3
20260506142503 16 0 0.0 0.0 0.00 0.00 0.00 81 1006.2
20260506142003 16 0 0.0 0.0 0.00 0.00 0.00 81 1006.3
20260506141502 16 0 0.0 0.0 0.00 0.00 0.00 81 1006.4
20260506141003 16 0 0.0 0.0 0.00 0.00 0.00 81 1006.5
20260506140502 16 0 0.0 0.0 0.00 0.00 0.00 81 1006.3
20260506140003 16 0 0.0 0.0 0.00 0.00 0.00 82 1006.4
20260506135502 16 0 0.0 0.0 0.00 0.00 0.00 82 1006.4
20260506135003 16 0 0.0 0.0 0.00 0.00 0.00 82 1006.4
20260506134503 16 0 0.0 0.0 0.00 0.00 0.00 82 1006.3
20260506134003 16 0 0.0 0.0 0.00 0.00 0.00 83 1006.4
20260506133503 16 0 0.0 0.0 0.00 0.00 0.00 83 1006.4
20260506133002 16 0 0.0 0.0 0.00 0.00 0.00 83 1006.4
20260506132503 16 0 0.0 0.0 0.00 0.00 0.00 84 1006.3
20260506132002 15 0 0.0 0.0 0.00 0.00 0.00 83 1006.6
20260506131503 15 0 0.0 0.0 0.00 0.00 0.00 84 1006.6
20260506131002 15 0 0.0 0.0 0.00 0.00 0.00 84 1006.9
20260506130503 15 0 0.0 0.0 0.00 0.00 0.00 84 1006.9
20260506130003 15 0 0.0 0.0 0.00 0.00 0.00 84 1007.1
20260506125503 15 0 0.0 0.0 0.00 0.00 0.00 84 1007.1
20260506125003 15 0 0.0 0.0 0.00 0.00 0.00 85 1007.2
20260506124503 15 0 0.0 0.0 0.00 0.00 0.00 85 1007.2
20260506124003 15 0 0.0 0.0 0.00 0.00 0.00 85 1007.3
20260506123503 15 0 0.0 0.0 0.00 0.00 0.00 85 1007.3
20260506123003 15 0 0.0 0.0 0.00 0.00 0.00 85 1006.9
20260506122502 15 0 0.0 0.0 0.00 0.00 0.00 85 1006.8
20260506122003 15 0 0.0 0.0 0.00 0.00 0.00 85 1006.7
20260506121502 15 0 0.0 0.0 0.00 0.00 0.00 85 1007.0
20260506121003 15 0 0.0 0.0 0.00 0.00 0.00 84 1006.7
20260506120502 15 0 0.0 0.0 0.00 0.00 0.00 85 1006.7
20260506120003 15 0 0.0 0.0 0.00 0.00 0.00 85 1006.7
20260506115502 15 0 0.0 0.0 0.00 0.00 0.00 85 1006.9
20260506115003 15 0 0.0 0.0 0.00 0.00 0.00 85 1006.9
20260506114503 15 0 0.0 0.0 0.00 0.00 0.00 86 1007.1
20260506114003 14 0 0.0 0.0 0.00 0.00 0.00 86 1007.1
20260506113503 14 0 0.0 0.0 0.00 0.00 0.00 86 1007.2
20260506113002 14 0 0.0 0.0 0.00 0.00 0.00 87 1007.0
20260506112503 13 0 0.0 0.0 0.00 0.00 0.00 85 1007.0
20260506112003 13 0 0.0 0.0 0.00 0.00 0.00 77 1007.0
20260506111503 12 0 0.0 0.0 0.00 0.00 0.00 74 1006.8
20260506111003 12 0 0.0 0.0 0.00 0.00 0.00 74 1006.9
20260506110503 11 0 0.0 0.0 0.00 0.00 0.00 75 1007.2
20260506110003 11 0 0.0 0.0 0.00 0.00 0.00 76 1007.2
20260506105503 10 0 0.0 0.0 0.00 0.00 0.00 77 1007.1
20260506105003 10 0 0.0 0.0 0.00 0.00 0.00 78 1007.0
20260506104503 10 0 0.0 0.0 0.00 0.00 0.00 78 1007.0
20260506104003 10 0 0.0 0.0 0.00 0.00 0.00 79 1007.0
20260506103503 10 0 0.0 0.0 0.00 0.00 0.00 80 1006.9
20260506103003 10 0 0.0 0.0 0.00 0.00 0.00 81 1007.0
20260506102503 10 0 0.0 0.0 0.00 0.00 0.00 82 1007.1
20260506102003 10 0 0.0 0.0 0.00 0.00 0.00 82 1007.0
20260506101503 10 0 0.0 0.0 0.00 0.00 0.00 82 1007.1
20260506101003 10 0 0.0 0.0 0.00 0.00 0.00 81 1007.1
20260506100003 10 0 0.0 0.0 0.00 0.00 0.00 82 1007.0
20260506095503 10 0 0.0 0.0 0.00 0.00 0.00 82 1007.2
20260506095002 10 0 0.0 0.0 0.00 0.00 0.00 83 1007.3
20260506094503 10 0 0.0 0.0 0.00 0.00 0.00 85 1006.9
20260506094003 10 0 0.0 0.0 0.00 0.00 0.00 86 1007.0
20260506093503 10 0 0.0 0.0 0.00 0.00 0.00 86 1007.0
20260506093003 10 0 0.0 0.0 0.00 0.00 0.00 85 1007.0
20260506092503 10 0 0.0 0.0 0.00 0.00 0.00 84 1007.0
20260506092003 10 0 0.0 0.0 0.00 0.00 0.00 84 1007.0
20260506091503 10 0 0.0 0.0 0.00 0.00 0.00 85 1007.0
20260506091003 10 0 0.0 0.0 0.00 0.00 0.00 86 1006.9
20260506090503 11 0 0.0 0.0 0.00 0.00 0.00 86 1007.0
20260506090003 11 0 0.0 0.0 0.00 0.00 0.00 87 1007.0
20260506085503 11 0 0.0 0.0 0.00 0.00 0.00 87 1007.0
20260506085002 11 0 0.0 0.0 0.00 0.00 0.00 87 1007.0
20260506084503 11 0 0.0 0.0 0.00 0.00 0.00 87 1007.1
20260506084003 11 0 0.0 0.0 0.00 0.00 0.00 87 1007.1
20260506083503 11 0 0.0 0.0 0.00 0.00 0.00 87 1007.2
20260506083003 11 0 0.0 0.0 0.00 0.00 0.00 87 1007.2
20260506082503 11 0 0.0 0.0 0.00 0.00 0.00 87 1007.3
20260506082003 11 0 0.0 0.0 0.00 0.00 0.00 88 1007.2
20260506081503 11 0 0.0 0.0 0.00 0.00 0.00 87 1007.4
20260506081003 12 0 0.0 0.0 0.00 0.00 0.00 87 1007.5
20260506080503 12 0 0.0 0.0 0.00 0.00 0.00 87 1007.5
20260506073502 13 0 0.0 0.0 0.00 0.00 0.00 84 1007.5
20260506073003 13 0 0.0 0.0 0.00 0.00 0.00 84 1007.4
20260506072503 13 0 0.0 0.0 0.00 0.00 0.00 84 1007.4
20260506072003 13 0 0.0 0.0 0.00 0.00 0.00 84 1007.4
20260506071503 13 0 0.0 0.0 0.00 0.00 0.00 84 1007.4
20260506071003 14 0 0.0 0.0 0.00 0.00 0.00 83 1007.4
20260506070503 14 0 0.0 0.0 0.00 0.00 0.00 82 1007.4
20260506062503 15 0 0.0 0.0 0.00 0.00 0.00 80 1007.1
20260506062003 15 0 0.0 0.0 0.00 0.00 0.00 80 1007.1
20260506061503 15 0 0.0 0.0 0.00 0.00 0.00 80 1007.0
20260506061003 15 0 0.0 0.0 0.00 0.00 0.00 78 1007.1
20260506060503 16 0 0.0 0.0 0.00 0.00 0.00 76 1007.1
20260506051003 17 0 0.0 0.0 0.00 0.00 0.00 73 1007.1
20260506050503 17 0 0.0 0.0 0.00 0.00 0.00 73 1007.2
20260506045003 17 0 0.0 0.0 0.00 0.00 0.00 74 1007.0
20260506044504 17 0 0.0 0.0 0.00 0.00 0.00 76 1007.1
20260506044003 17 0 0.0 0.0 0.00 0.00 0.00 77 1007.0
20260506043503 17 0 0.0 0.0 0.00 0.00 0.00 80 1007.0
20260506043003 17 0 0.0 0.0 0.00 0.00 0.00 80 1007.1
20260506042503 17 0 0.0 0.0 0.00 0.00 0.00 79 1007.1
20260506042004 16 0 0.0 0.0 0.00 0.00 0.00 81 1007.0
20260506041503 16 0 0.0 0.0 0.00 0.00 0.00 81 1006.9
20260506041004 17 0 0.0 0.0 0.00 0.00 0.00 80 1006.8
20260506040503 17 0 0.0 0.0 0.00 0.00 0.00 78 1006.6
20260506040003 17 0 0.0 0.0 0.00 0.00 0.00 78 1006.4
20260506035503 17 0 0.0 0.0 0.00 0.00 0.00 79 1006.7
20260506035003 17 0 0.0 0.0 0.00 0.00 0.00 81 1006.7
20260506034503 16 0 0.0 0.0 0.00 0.00 0.00 83 1006.8
20260506034003 16 0 0.0 0.0 0.00 0.00 0.00 83 1006.8
20260506033503 16 0 0.0 0.0 0.00 0.00 0.00 84 1006.9
20260506033003 16 0 0.0 0.0 0.00 0.00 0.00 85 1006.9
20260506032503 16 0 0.0 0.0 0.00 0.00 0.00 86 1006.9
20260506032002 15 0 0.0 0.0 0.00 0.00 0.00 86 1006.9
20260506031503 15 0 0.0 0.0 0.00 0.00 0.00 86 1006.9
20260506031003 15 0 0.0 0.0 0.00 0.00 0.00 86 1006.8
20260506030503 15 0 0.0 0.0 0.00 0.00 0.00 85 1006.8
20260506030003 15 0 0.0 0.0 0.00 0.00 0.00 85 1006.9
20260506025503 15 0 0.0 0.0 0.00 0.00 0.00 85 1007.0
20260506025003 15 0 0.0 0.0 0.00 0.00 0.00 85 1006.8
20260506024503 15 0 0.0 0.0 0.00 0.00 0.00 85 1006.8
20260506024003 15 0 0.0 0.0 0.00 0.00 0.00 85 1006.8
20260506023503 15 0 0.0 0.0 0.00 0.00 0.00 85 1006.8
20260506023003 15 0 0.0 0.0 0.00 0.00 0.00 85 1006.7
20260506022503 14 0 0.0 0.0 0.00 0.00 0.00 86 1006.7
20260506022003 15 0 0.0 0.0 0.00 0.00 0.00 86 1006.9
20260506021503 15 0 0.0 0.0 0.00 0.00 0.00 86 1006.8
20260506021003 15 0 0.0 0.0 0.00 0.00 0.00 87 1006.9
20260506020503 15 0 0.0 0.0 0.00 0.00 0.00 87 1006.8
20260506020004 15 0 0.0 0.0 0.00 0.00 0.00 87 1006.5
20260506015503 15 0 0.0 0.0 0.00 0.00 0.00 87 1006.7
20260506015003 15 0 0.0 0.0 0.00 0.00 0.00 87 1006.6
20260506014503 15 0 0.0 0.0 0.00 0.00 0.00 87 1006.7
20260506014003 15 0 0.0 0.0 0.00 0.00 0.00 86 1006.5
20260506013503 15 0 0.0 0.0 0.00 0.00 0.00 85 1006.4
20260506013003 16 0 0.0 0.0 0.00 0.00 0.00 85 1006.3
20260506012503 16 0 0.0 0.0 0.00 0.00 0.00 85 1006.3
20260506012003 16 0 0.0 0.0 0.00 0.00 0.00 84 1006.2
20260506011503 16 0 0.0 0.0 0.00 0.00 0.00 83 1006.1
20260506011003 16 0 0.0 0.0 0.00 0.00 0.00 82 1006.3
20260506010503 16 0 0.0 0.0 0.00 0.00 0.00 83 1006.3
20260506010004 16 0 0.0 0.0 0.00 0.00 0.00 84 1006.4
20260506005503 16 0 0.0 0.0 0.00 0.00 0.00 84 1006.1
20260506005003 17 0 0.0 0.0 0.00 0.00 0.00 83 1005.9
20260506004503 17 0 0.0 0.0 0.00 0.00 0.00 83 1005.8
20260506004003 17 0 0.0 0.0 0.00 0.00 0.00 83 1006.0
20260506003504 16 0 0.0 0.0 0.00 0.00 0.00 85 1006.0
20260506003003 16 0 0.0 0.0 0.00 0.00 0.00 86 1006.0
20260506002503 16 0 0.0 0.0 0.00 0.00 0.00 86 1006.0
20260506002003 16 0 0.0 0.0 0.00 0.00 0.00 86 1005.9
20260506001503 16 0 0.0 0.0 0.00 0.00 0.00 86 1005.9